Location: D�derode
(51.8092°N, 10.1065°E)
Time: 06:56:27
(UTC+00:00)

ADEOS Rocket - Pass Details

Date: 01 December 2020
Orbit: 858 x 1307 km, 98.7° (Epoch: 23 January)

Event Time Altitude Azimuth Distance (km) Brightness Sun altitude
Rises 16:05:29 0° 15° (NNE) 4,250 5.9 -7.9°
Reaches altitude 10° 16:08:09 10° 17° (NNE) 3,306 5.4 -8.3°
Maximum altitude 16:15:58 80° 105° (ESE) 1,331 3.6 -9.4°
Drops below altitude 10° 16:23:41 10° 192° (SSW) 3,277 6.2 -10.4°
Sets 16:26:19 0° 194° (SSW) 4,211 6.9 -10.8°
